Regional Weather Roundup
Issued by NWS

Home | Current Version | Previous Version | Graphics & Text | Print | Product List | Glossary On
Versions: 1 2 3 4 5 6 7 8 9 10 11 12 13 14 15 16 17 18 19 20 21 22 23 24 25 26 27 28 29 30 31 32 33 34 35 36 37 38 39 40 41 42 43 44 45 46 47 48 49 50
000
ASUS43 KLMK 181402
RWRKY
KENTUCKY REGIONAL WEATHER ROUNDUP
NATIONAL WEATHER SERVICE LOUISVILLE KY
900 AM EST SAT NOV 18 2017

NOTE "FAIR" INDICATES FEW OR NO CLOUDS BELOW 12,000 FEET
WITH NO SIGNIFICANT WEATHER AND/OR OBSTRUCTIONS TO VISIBILITY.

KYZ001>023-026-027-061>063-070>075-181500-
WESTERN AND SOUTH CENTRAL KENTUCKY

CITY           SKY/WX    TMP DP  RH WIND       PRES   REMARKS
PADUCAH        LGT RAIN  66  59  78 S6        29.57R
HENDERSON      NOT AVBL
OWENSBORO      CLOUDY    64  57  78 S21G29    29.57F
HOPKINSVILLE   CLOUDY    64  58  80 S9        29.65R
BOWLING GREEN  CLOUDY    63  55  75 S18G26    29.68S
GLASGOW        NOT AVBL
$$

KYZ024-025-028>034-038-045-046-053-181500-
NORTH CENTRAL KENTUCKY

CITY           SKY/WX    TMP DP  RH WIND       PRES   REMARKS
LOUISVILLE/SDF CLOUDY    64  54  69 S18G33    29.58F
LOUISVILLE/LOU CLOUDY    64  55  72 S20G32    29.59F
FORT KNOX      CLOUDY    62  53  73 S22G33    29.60F
$$

KYZ035>037-039>044-047>052-055>060-089>105-181500-
NORTHEAST KENTUCKY

CITY           SKY/WX    TMP DP  RH WIND       PRES   REMARKS
LEXINGTON      CLOUDY    60  50  69 S23G33    29.65S
COVINGTON      CLOUDY    59  50  72 SW17G31   29.53F
FRANKFORT      CLOUDY    61  48  62 S22G44    29.61F
$$

KYZ054-064>069-076>088-106>120-181500-
SOUTHEAST KENTUCKY

CITY           SKY/WX    TMP DP  RH WIND       PRES   REMARKS
JACKSON        PTSUNNY   59  41  51 VRB3G25   29.73F
LONDON         CLOUDY    58  42  55 S13       29.76F
SOMERSET       CLOUDY    59  45  58 S17G25    29.75F
MIDDLESBORO    CLOUDY    56  41  57 S20G28    29.84F
MONTICELLO     CLOUDY    61  49  64 S25G40    29.75F
$$





USA.gov is the U.S. government's official web portal to all federal, state and local government web resources and services.